Vorticity
5 5 4 6 6 -1 11 12 18 4 5 6 1 -1 1 6 -1 -0 11 5 9 5 3 3 3 3 2 3 2 3 4 5 5 4 4 4 4 6 11 5 -1 3 3 4 5 8 11 11 10
6 5 7 12 4 -1 15 12 1 4 8 6 -9 -2 7 3 -2 16 3 4 3 4 5 9 1 3 2 3 3 3 4 5 6 6 5 4 4 4 7 12 -4 2 3 3 4 5 9 10 9
8 6 4 4 2 15 27 -1 -1 6 5 24 10 -0 5 14 8 7 6 -1 1 5 4 6 2 4 3 3 3 3 3 3 4 5 5 5 4 4 4 6 2 3 3 3 3 3 5 9 9
7 8 -1 1 6 -3 29 24 4 1 11 3 5 5 7 8 10 0 0 -1 4 2 2 5 6 6 3 3 3 3 3 3 4 3 4 5 5 5 5 5 3 4 3 3 3 3 3 5 8
8 10 -12 8 -5 15 12 8 2 30 12 6 3 5 11 3 4 4 3 3 1 3 -0 4 6 7 4 6 5 3 3 4 2 1 3 3 4 5 4 4 4 4 4 4 3 3 3 3 4
3 -6 11 11 6 8 5 0 1 9 6 9 5 -0 5 4 3 4 4 4 1 8 1 1 3 1 5 4 3 6 5 5 2 4 2 2 3 2 3 5 4 4 5 4 4 4 3 3 3
5 -10 13 7 0 12 7 7 0 7 14 -4 -2 4 0 4 4 5 6 8 9 8 6 4 2 3 5 3 5 5 3 2 1 1 2 2 3 3 4 3 3 4 3 4 4 4 4 3 3
4 -10 6 6 -3 15 13 4 5 5 8 6 8 6 4 4 3 4 6 6 7 9 7 6 6 6 5 7 5 6 7 6 5 4 3 4 4 3 4 3 3 3 3 3 3 4 4 4 4
-3 -2 14 14 19 -3 16 1 -2 0 9 5 1 0 18 8 7 7 8 7 6 6 7 8 8 8 8 7 8 7 7 6 7 5 5 4 5 7 10 9 8 4 4 3 3 4 4 5 4
-7 -4 12 1 3 10 27 5 6 4 5 5 4 3 3 7 7 5 4 4 5 5 5 5 5 5 5 5 6 6 6 6 7 8 8 9 8 7 6 4 4 5 4 5 3 4 4 5 5
-14 6 17 1 -11 6 6 6 5 3 7 5 4 5 5 4 3 3 4 4 3 3 4 4 4 4 4 4 4 4 4 4 4 3 3 3 2 5 7 5 8 3 4 3 5 6 7 4 3
-10 8 6 5 6 7 8 5 1 -3 -1 4 11 6 4 4 4 4 4 4 5 6 6 6 6 6 6 6 5 5 5 5 5 4 5 4 4 4 4 4 4 7 5 5 4 4 3 4 4
5 -16 14 21 11 9 15 2 2 2 3 6 3 4 4 4 4 5 5 5 4 4 4 5 6 7 7 7 6 6 5 5 5 5 5 5 5 5 5 5 5 5 4 8 6 3 6 3 4
4 14 10 11 8 9 7 6 4 5 3 2 3 4 4 5 6 5 4 4 5 6 8 7 7 6 5 5 4 5 5 6 6 6 6 6 6 6 6 6 6 7 6 6 2 6 7 0 4
5 8 7 8 7 6 6 6 3 5 5 5 5 5 5 4 4 4 6 6 7 8 6 6 5 5 5 5 6 5 5 4 4 5 5 5 5 5 6 5 5 6 6 7 7 4 4 4 9
8 3 2 6 5 4 5 6 11 7 6 6 5 5 5 5 5 6 7 8 6 5 4 4 5 5 5 4 3 2 3 4 5 6 7 8 8 8 7 7 7 7 7 6 6 7 7 5 7
6 22 1 15 4 0 2 14 8 2 6 6 6 6 6 6 8 6 6 5 4 5 5 5 4 4 4 4 6 8 10 11 12 13 12 11 11 10 10 10 10 9 8 9 9 7 6 6 7
12 14 3 11 24 4 2 -0 -2 -3 3 7 8 8 7 6 5 3 5 5 5 5 5 4 4 5 7 7 8 10 11 10 10 9 9 10 11 11 11 11 11 12 12 11 10 10 12 9 7
22 5 1 5 4 16 13 5 5 5 9 7 6 5 5 4 4 6 5 5 5 5 4 4 6 7 9 12 12 10 9 11 11 11 11 10 9 9 9 7 6 6 8 9 9 9 12 12 13
11 12 3 8 9 7 4 5 7 10 6 6 7 6 7 5 4 6 7 6 3 4 5 9 11 13 9 9 11 12 12 11 12 11 10 9 8 8 8 15 22 24 24 24 24 24 18 11 13
8 1 3 -4 4 8 8 21 32 20 14 11 10 11 12 7 6 2 3 5 9 12 13 12 10 10 12 13 11 9 10 10 7 14 20 20 20 23 16 11 11 11 13 16 21 24 26 21 17
4 5 4 6 9 8 5 3 -16 -2 -2 3 2 6 8 7 8 7 10 14 14 11 10 10 13 13 10 8 8 6 8 7 24 29 28 20 10 9 14 17 18 20 18 14 10 10 14 22 22
11 8 6 6 4 7 21 17 12 4 6 16 11 9 27 23 17 17 15 14 10 9 13 16 10 8 9 5 9 16 23 27 15 11 9 14 17 14 15 15 15 13 14 17 18 19 18 15 21
8 5 4 9 12 22 24 -4 20 15 15 9 13 18 9 11 13 13 9 7 10 12 12 8 9 7 7 9 22 22 21 19 11 14 12 10 12 12 11 12 9 9 10 11 14 17 23 24 19
4 5 10 9 10 2 5 25 -14 -1 2 2 3 9 13 11 9 8 7 11 11 11 7 8 6 7 10 24 16 19 14 12 12 11 10 9 9 10 12 9 10 9 9 11 14 17 20 22 24
11 7 1 9 10 -5 -6 17 3 -3 6 10 11 4 9 8 9 13 14 12 7 6 8 8 7 7 17 19 15 15 11 10 11 9 8 8 10 10 9 11 11 10 9 10 14 16 22 23 28
19 9 12 -1 14 18 9 8 13 32 23 28 15 12 10 11 9 14 12 5 5 9 8 6 7 9 15 19 16 12 12 12 10 7 7 6 6 6 8 9 10 10 11 8 13 13 18 24 24
1 10 11 12 8 13 13 17 -5 -2 16 7 9 24 13 9 9 9 13 8 6 10 9 6 9 10 10 11 10 9 11 8 8 6 5 6 5 6 7 8 10 10 9 10 9 12 11 16 21
13 6 3 1 2 6 5 15 2 -4 4 23 13 13 6 7 9 7 13 9 9 9 8 7 8 6 9 10 10 8 7 6 6 4 4 4 5 5 6 8 9 10 10 9 9 9 11 9 11
9 2 11 -1 19 4 -1 5 53 39 5 12 14 6 6 -5 -4 10 10 10 10 9 8 8 7 8 6 7 9 7 6 6 6 5 5 4 5 5 6 7 8 10 11 10 10 10 9 10 10
Height
3145 3150 3155 3159 3165 3162 3161 3163 3162 3164 3166 3167 3168 3171 3174 3175 3178 3181 3179 3180 3181 3182 3182 3183 3183 3184 3184 3184 3184 3184 3183 3183 3182 3182 3182 3181 3181 3181 3180 3181 3181 3180 3179 3178 3176 3175 3173 3173 3172
3143 3149 3154 3157 3161 3160 3159 3159 3163 3164 3162 3167 3170 3171 3172 3175 3177 3178 3179 3180 3181 3182 3182 3183 3183 3184 3184 3185 3185 3185 3184 3184 3184 3183 3183 3182 3182 3182 3181 3181 3181 3180 3179 3178 3177 3176 3174 3173 3172
3141 3147 3152 3155 3156 3157 3158 3156 3159 3159 3164 3167 3170 3170 3173 3175 3177 3179 3179 3180 3181 3181 3181 3182 3183 3184 3185 3185 3185 3185 3185 3185 3185 3184 3184 3183 3183 3182 3182 3181 3181 3180 3179 3178 3177 3177 3176 3174 3173
3139 3147 3152 3152 3152 3157 3156 3157 3156 3160 3163 3165 3167 3171 3173 3175 3177 3179 3179 3180 3181 3181 3182 3182 3182 3183 3183 3184 3184 3185 3184 3185 3185 3185 3184 3184 3183 3183 3183 3182 3182 3182 3181 3180 3178 3177 3176 3175 3174
3137 3144 3149 3150 3151 3155 3157 3155 3158 3162 3163 3166 3166 3169 3172 3174 3176 3178 3179 3181 3181 3182 3181 3182 3182 3182 3182 3183 3183 3184 3184 3184 3184 3184 3183 3183 3183 3182 3182 3182 3182 3181 3180 3180 3179 3178 3177 3175 3174
3134 3141 3146 3147 3150 3153 3153 3155 3160 3161 3162 3165 3166 3169 3171 3173 3175 3177 3178 3179 3180 3181 3181 3181 3181 3181 3181 3181 3182 3182 3182 3183 3183 3182 3182 3182 3182 3181 3181 3181 3180 3180 3180 3179 3178 3178 3177 3176 3174
3133 3140 3143 3146 3148 3149 3151 3156 3160 3161 3161 3163 3164 3167 3170 3172 3174 3175 3177 3178 3178 3179 3179 3179 3179 3180 3180 3180 3180 3180 3181 3181 3181 3181 3181 3180 3180 3180 3180 3179 3178 3178 3177 3177 3176 3176 3175 3175 3174
3132 3139 3141 3146 3145 3149 3150 3153 3157 3159 3160 3163 3165 3165 3167 3170 3172 3173 3175 3175 3176 3177 3178 3178 3178 3178 3179 3178 3178 3178 3178 3178 3178 3178 3178 3178 3178 3178 3177 3176 3176 3175 3175 3175 3174 3174 3173 3172 3172
3131 3137 3140 3143 3144 3145 3149 3150 3152 3155 3159 3162 3162 3164 3168 3168 3170 3171 3172 3173 3174 3175 3176 3176 3176 3176 3176 3176 3176 3176 3175 3175 3176 3176 3175 3175 3175 3174 3173 3173 3173 3172 3172 3172 3172 3171 3171 3170 3169
3131 3137 3137 3140 3141 3142 3148 3150 3154 3156 3159 3161 3162 3164 3166 3167 3169 3170 3171 3172 3173 3174 3174 3174 3174 3174 3174 3174 3174 3173 3173 3173 3172 3172 3171 3171 3171 3170 3168 3169 3170 3169 3169 3168 3168 3167 3167 3167 3166
3129 3132 3135 3140 3139 3142 3144 3148 3153 3154 3157 3159 3162 3164 3165 3167 3168 3169 3170 3171 3171 3171 3172 3172 3172 3172 3172 3171 3171 3170 3170 3169 3169 3168 3167 3167 3165 3165 3165 3164 3163 3163 3163 3163 3163 3162 3162 3163 3162
3130 3131 3134 3138 3141 3143 3145 3149 3150 3152 3154 3159 3162 3164 3165 3166 3167 3168 3168 3168 3169 3168 3169 3169 3169 3169 3169 3168 3167 3167 3166 3165 3164 3163 3163 3161 3160 3160 3160 3159 3159 3158 3158 3157 3158 3157 3157 3156 3156
3128 3131 3135 3138 3141 3144 3146 3148 3150 3153 3156 3158 3161 3162 3163 3164 3165 3166 3166 3166 3166 3166 3166 3166 3166 3166 3165 3164 3163 3162 3161 3159 3159 3158 3157 3156 3155 3154 3153 3153 3152 3152 3152 3151 3151 3151 3151 3150 3151
3129 3132 3135 3137 3141 3143 3146 3148 3150 3153 3155 3157 3159 3160 3161 3162 3163 3163 3164 3164 3164 3163 3163 3162 3162 3161 3160 3159 3157 3156 3155 3154 3152 3151 3151 3150 3148 3147 3146 3144 3144 3145 3145 3144 3144 3144 3144 3144 3143
3130 3133 3135 3138 3141 3143 3146 3148 3148 3152 3153 3155 3156 3157 3158 3159 3159 3159 3160 3160 3160 3159 3159 3158 3157 3155 3154 3153 3152 3151 3149 3148 3146 3145 3144 3142 3141 3139 3138 3137 3136 3135 3135 3135 3135 3135 3136 3135 3136
3131 3134 3135 3138 3140 3143 3145 3147 3147 3150 3151 3152 3153 3154 3155 3155 3155 3155 3156 3156 3155 3155 3154 3152 3151 3150 3148 3147 3146 3144 3142 3140 3139 3137 3136 3135 3132 3130 3129 3127 3127 3128 3126 3124 3123 3125 3125 3125 3127
3130 3132 3135 3138 3140 3142 3144 3144 3145 3147 3148 3149 3150 3150 3150 3150 3150 3150 3152 3151 3151 3150 3148 3147 3145 3143 3142 3140 3138 3136 3134 3132 3131 3129 3127 3125 3124 3122 3119 3117 3117 3116 3115 3113 3112 3111 3112 3112 3113
3129 3132 3136 3135 3139 3140 3141 3142 3142 3144 3145 3145 3146 3146 3146 3145 3145 3144 3147 3146 3145 3144 3142 3140 3138 3136 3134 3132 3130 3128 3126 3124 3122 3119 3117 3116 3114 3112 3109 3107 3105 3104 3102 3101 3100 3100 3100 3099 3100
3129 3132 3134 3135 3136 3138 3140 3140 3140 3139 3141 3141 3142 3142 3143 3142 3140 3141 3141 3140 3140 3138 3136 3134 3131 3128 3126 3124 3122 3120 3118 3116 3114 3111 3108 3106 3104 3103 3100 3098 3094 3091 3089 3088 3086 3085 3085 3087 3089
3129 3132 3134 3134 3135 3136 3137 3135 3136 3136 3136 3137 3138 3139 3139 3137 3135 3136 3135 3136 3134 3132 3129 3127 3124 3121 3119 3116 3115 3112 3110 3108 3105 3103 3099 3097 3095 3093 3090 3087 3084 3081 3077 3075 3074 3073 3072 3072 3074
3129 3131 3132 3134 3135 3135 3134 3131 3132 3132 3132 3133 3132 3134 3134 3132 3130 3129 3129 3128 3127 3125 3123 3121 3118 3115 3113 3111 3108 3105 3103 3100 3096 3093 3090 3088 3086 3085 3082 3080 3076 3073 3069 3066 3064 3062 3061 3059 3061
3129 3131 3132 3133 3134 3134 3134 3131 3129 3129 3128 3128 3128 3128 3127 3126 3125 3123 3122 3122 3120 3119 3118 3116 3113 3111 3108 3105 3102 3098 3095 3092 3089 3085 3083 3082 3081 3080 3078 3075 3070 3067 3063 3060 3058 3055 3051 3050 3049
3128 3129 3131 3132 3132 3132 3131 3131 3121 3123 3123 3122 3121 3120 3121 3119 3119 3118 3117 3117 3115 3114 3113 3111 3109 3107 3103 3099 3095 3091 3088 3086 3084 3083 3081 3080 3079 3076 3073 3069 3065 3060 3056 3053 3049 3046 3043 3042 3041
3128 3130 3130 3130 3130 3129 3126 3127 3119 3119 3117 3116 3115 3116 3115 3114 3114 3113 3113 3113 3111 3111 3109 3107 3105 3102 3098 3094 3089 3086 3083 3082 3081 3081 3080 3078 3076 3071 3068 3064 3059 3055 3051 3047 3043 3039 3035 3031 3031
3128 3129 3129 3130 3129 3127 3124 3124 3115 3115 3114 3113 3113 3113 3112 3111 3111 3111 3110 3109 3108 3107 3106 3104 3102 3099 3094 3090 3086 3083 3082 3080 3080 3080 3078 3075 3071 3068 3065 3057 3055 3052 3049 3045 3040 3034 3028 3025 3022
3126 3128 3129 3132 3130 3125 3123 3117 3113 3113 3111 3111 3111 3110 3109 3109 3109 3108 3107 3106 3105 3104 3103 3101 3099 3095 3091 3087 3085 3082 3081 3080 3080 3079 3076 3073 3069 3065 3058 3056 3053 3050 3046 3042 3036 3030 3025 3021 3019
3125 3127 3129 3129 3127 3125 3117 3113 3112 3108 3108 3108 3108 3107 3107 3106 3105 3105 3104 3103 3102 3100 3099 3098 3096 3093 3090 3086 3083 3080 3081 3081 3080 3077 3074 3071 3065 3059 3057 3054 3051 3048 3044 3039 3034 3029 3023 3019 3017
3124 3126 3127 3127 3129 3127 3113 3110 3108 3108 3107 3106 3105 3104 3104 3104 3103 3103 3101 3100 3099 3098 3097 3096 3094 3092 3089 3085 3083 3082 3082 3081 3079 3076 3072 3067 3061 3059 3056 3054 3050 3046 3042 3038 3033 3028 3023 3020 3017
3122 3122 3124 3125 3125 3124 3121 3108 3106 3106 3105 3103 3103 3103 3102 3102 3101 3100 3099 3097 3096 3095 3094 3093 3091 3090 3088 3086 3085 3084 3082 3080 3077 3073 3069 3064 3062 3060 3056 3054 3049 3045 3041 3036 3032 3028 3024 3021 3018
3118 3119 3120 3121 3122 3120 3118 3105 3104 3103 3102 3101 3101 3101 3100 3099 3098 3097 3096 3094 3093 3092 3091 3091 3089 3087 3086 3085 3085 3083 3080 3078 3075 3071 3068 3065 3062 3059 3056 3053 3049 3045 3040 3036 3032 3029 3025 3022 3019